Location: Allens Landing
(37.8284°N, 89.7284°W)
Time: 12:49:22
(UTC+00:00)

Vanguard 2 - Pass Details

Date: 15 December 2025
Orbit: 552 x 2898 km, 32.9° (Epoch: 13 January)

Event Time Altitude Azimuth Distance (km) Brightness Sun altitude
Exits shadow 12:02:36 13° 252° (WSW) 1,671 8.8 -12.5°
Maximum altitude 12:05:43 31° 192° (SSW) 1,039 8.3 -11.9°
Drops below altitude 10° 12:09:58 10° 129° (SE) 2,189 11.2 -11.1°
Sets 12:12:59 0° 119° (ESE) 3,378 12.9 -10.5°
